Date,TemperatureHighF,TemperatureAvgF,TemperatureLowF,DewpointHighF,DewpointAvgF,DewpointLowF,HumidityHigh,HumidityAvg,HumidityLow,PressureMaxIn,PressureMinIn,WindSpeedMaxMPH,WindSpeedAvgMPH,GustSpeedMaxMPH,PrecipitationSumIn
2013-1-1,29.5,22.3,9.3,20.0,5.5,-10.6,83,50,33,29.47,29.23,20,6,20,0.00
2013-1-2,20.3,8.1,-1.3,0.0,-11.7,-20.2,45,39,37,29.62,29.41,31,5,31,0.00
2013-1-3,21.4,8.7,-0.9,0.1,-11.0,-20.4,44,39,37,29.68,29.53,12,2,12,0.00
2013-1-4,32.2,19.1,2.3,17.8,4.1,-14.6,68,52,44,29.53,29.32,22,5,22,0.00
2013-1-5,32.9,26.4,11.3,18.7,8.7,-3.3,62,47,35,29.88,29.32,26,5,26,0.00
2013-1-6,29.3,21.0,10.4,19.7,10.7,-4.3,79,64,51,29.85,29.53,16,1,16,0.00
2013-1-7,24.8,19.2,11.5,20.3,7.8,-1.5,84,62,44,30.00,29.56,12,1,12,0.00
2013-1-8,37.0,27.3,10.8,22.7,14.2,0.0,87,59,42,29.94,29.77,34,4,34,0.00
2013-1-9,39.7,30.2,15.8,34.0,21.8,9.6,88,71,56,30.00,29.47,17,2,17,0.00
2013-1-10,43.3,36.3,26.4,24.1,18.5,12.0,68,49,39,30.09,29.47,33,6,33,0.16
2013-1-11,37.8,29.8,21.4,21.3,14.0,9.5,62,52,39,30.12,29.85,11,1,11,0.00
2013-1-12,41.4,37.5,33.1,38.7,32.9,21.5,98,84,62,29.85,29.71,6,0,6,0.08
2013-1-13,46.4,40.8,36.9,45.9,40.2,36.2,98,98,98,29.77,29.53,16,2,16,0.00
2013-1-14,52.7,44.0,35.1,52.0,38.0,18.1,98,82,43,29.80,29.47,21,4,21,0.04
2013-1-15,36.9,32.6,26.8,24.8,17.5,13.3,74,54,42,29.91,29.77,11,0,11,0.00
2013-1-16,33.4,31.2,28.4,30.7,23.5,12.8,92,74,51,29.85,29.35,12,1,12,0.00
2013-1-17,38.5,27.4,13.3,31.3,17.2,-7.2,97,69,37,29.74,29.35,22,3,22,0.04
2013-1-18,14.9,9.8,3.9,-6.6,-11.2,-15.5,39,37,35,29.97,29.68,20,3,20,0.00
2013-1-19,36.0,26.9,7.7,21.4,11.1,-14.2,82,52,35,29.94,29.47,31,3,31,0.00
2013-1-20,45.5,38.0,23.4,32.0,20.5,2.1,77,51,32,29.47,29.06,37,9,37,0.16
2013-1-21,23.5,18.8,12.6,3.0,-3.7,-8.2,53,36,32,29.62,29.41,21,5,21,0.00
2013-1-22,16.5,12.1,7.3,4.7,-4.2,-10.2,59,47,43,29.56,29.35,21,1,21,0.00
2013-1-23,7.2,2.2,-2.2,-10.1,-14.7,-18.8,44,44,44,29.62,29.56,24,6,24,0.00
2013-1-24,10.9,3.0,-4.2,-6.7,-14.0,-20.6,44,44,44,29.65,29.47,30,8,30,0.00
2013-1-25,19.0,9.8,2.3,-4.1,-10.0,-14.8,44,40,34,29.74,29.62,19,4,19,0.00
2013-1-26,21.2,13.3,7.0,-3.4,-9.2,-14.3,39,35,33,29.68,29.53,17,2,17,0.00
2013-1-27,23.5,14.2,7.5,-0.7,-8.4,-15.0,39,35,33,29.97,29.68,19,3,19,0.00
2013-1-28,27.3,16.7,7.0,14.7,-5.2,-13.8,76,37,28,29.97,29.65,13,1,13,0.00
2013-1-29,34.5,25.5,12.0,28.2,17.2,6.2,82,71,52,29.80,29.62,10,0,10,0.00
2013-1-30,54.3,45.0,33.1,53.8,43.9,28.2,98,96,82,29.74,29.06,35,7,35,0.31
2013-1-31,56.1,54.1,53.1,55.4,53.6,52.5,98,98,97,29.06,28.59,43,15,43,0.08